Printer-friendly version

IAU Minor Planet Center

Minor Planet Center

MPEC 2007-U58 : COMET P/2007 Q2 (GILMORE)

The following Minor Planet Electronic Circular may be linked-to from your own Web pages, but must not otherwise be redistributed electronically.


Read MPEC 2007-U57 Read MPEC 2007-U59


M.P.E.C. 2007-U58                                Issued 2007 Oct. 23, 16:03 UT

     The Minor Planet Electronic Circulars contain information on unusual
         minor planets and routine data on comets.  They are published
   on behalf of Commission 20 of the International Astronomical Union by the
          Minor Planet Center, Smithsonian Astrophysical Observatory,
                          Cambridge, MA 02138, U.S.A.

             Prepared using the Tamkin Foundation Computer Network

                              MPC@CFA.HARVARD.EDU
          URL http://www.cfa.harvard.edu/iau/mpc.html  ISSN 1523-6714

                           COMET P/2007 Q2 (GILMORE)

Observations:
    PK07Q020  C2007 10 09.79664 22 54 36.20 -09 22 36.4          18.1 T EU058585
    PK07Q020  C2007 10 09.80486 22 54 36.60 -09 22 41.3          18.1 T EU058585
    PK07Q020  C2007 10 09.81050 22 54 36.76 -09 22 42.2          18.2 T EU058585
    PK07Q020  C2007 10 09.81631 22 54 36.89 -09 22 47.6          18.2 T EU058585
    PK07Q020  C2007 10 11.09770 22 55 23.19 -09 30 04.8          19.8 T EU058691
    PK07Q020  C2007 10 11.10282 22 55 23.37 -09 30 06.2          19.7 T EU058691
    PK07Q020  C2007 10 11.11405 22 55 23.75 -09 30 09.7          20.3 T EU058691
    PK07Q020  C2007 10 11.11917 22 55 23.95 -09 30 11.5          19.9 T EU058691
    PK07Q020  C2007 10 11.12694 22 55 24.19 -09 30 14.2          20.0 T EU058691
    PK07Q020  C2007 10 11.13205 22 55 24.50 -09 30 15.5          19.6 T EU058691
    PK07Q020  C2007 10 15.22009 22 58 05.12 -09 50 13.7          20.2 T EU058703
    PK07Q020  C2007 10 15.22819 22 58 05.37 -09 50 15.6          20.9 T EU058703
    PK07Q020  C2007 10 15.23625 22 58 05.80 -09 50 17.3          20.3 T EU058703
    PK07Q020  C2007 10 15.24431 22 58 06.13 -09 50 19.2          21.0 T EU058703

Observer details:
585 Kiev comet station.  Observer A. Baransky.  0.7-m f/4 reflector + CCD.
691 Steward Observatory, Kitt Peak.  Observer J. V. Scotti.  0.9-m f/3
    reflector + CCD.
703 Catalina Sky Survey.  Observer E. Beshore.  Measurers E. C. Beshore,
    A. Boattini, A. R. Gibbs, A. D. Grauer, R. E. Hill, R. A. Kowalski,
    S. M. Larson.  0.68-m Schmidt + CCD.

Orbital elements:
    P/2007 Q2 (Gilmore)
Epoch 2007 Aug. 8.0 TT = JDT 2454320.5
T 2007 Aug. 23.87738 TT                                 MPC
q   1.8390170            (2000.0)            P               Q
n   0.07449956     Peri.  163.14832     +0.90984005     +0.41426614
a   5.5937139      Node   172.24912     -0.39826734     +0.88800310
e   0.6712351      Incl.   10.23841     -0.11650839     +0.19958473
P  13.23
Residuals in seconds of arc
070822 704  0.6+  0.5+    070831 213  0.0   0.4+    070919 691  0.4+  0.2+
070822 704  0.6+  1.0+    070831 213  0.1-  0.3+    070919 704  0.3+  0.5+
070822 704  1.1-  0.4+    070903 J70  1.5+  0.5-    070919 691  0.1-  0.1-
070822 704  0.8-  0.8+    070903 J70 (4.7+  0.6+)   070919 704  0.8+  0.9+
070822 474  0.2-  0.0     070903 J70 (4.4+  1.1+)   070920 349  0.0   0.4-
070822 474  0.0   0.0     070905 213  0.2+  0.4-    070920 349  0.1+  0.5-
070822 474  0.1+  0.2+    070905 213  0.2+  0.3-    070921 850  0.2+  0.4-
070824 474  0.1+  0.2-    070905 213  0.2+  0.3-    070921 850  0.1-  0.5-
070824 474  0.2+  0.1+    070907 704  0.3+  1.3+    070921 850  0.5+  0.1+
070824 474  0.4-  0.2+    070907 704  0.3-  0.0     070921 850  0.2+  0.2-
070824 B21  0.1+  0.3-    070907 704  0.8+  0.9+    070930 691  0.3-  0.2+
070824 B21  0.6-  0.1-    070907 704  0.3-  1.3+    070930 691  0.3-  0.3-
070825 247  0.0   0.3+    070907 704  0.1-  0.6+    070930 691  0.1-  0.3-
070825 A50  0.7-  0.3+    070907 J51  0.2+  0.4+    071001 585  1.7-  0.2-
070825 A50  0.8-  0.2+    070908 J51  0.2+  0.6+    071001 585  1.2+  0.0
070825 247  0.2-  0.3+    070908 J51  0.2+  0.4+    071001 585  1.1-  1.9-
070825 A50  0.7-  0.4+    070908 157  0.4-  0.1+    071004 673  0.5+  0.1+
070825 247  0.3-  0.3+    070909 415  0.0   0.1+    071004 673  0.1+  0.4+
070825 J95  0.1+  0.4-    070909 415  0.5-  0.4-    071004 673  0.1-  0.5+
070825 J95  0.0   0.6+    070910 B42  0.5+  0.0     071004 673  0.5+  0.7+
070825 J95  0.2-  0.1-    070911 691  0.0   0.1-    071007 246  0.9+  1.0+
070825 673  0.0   0.1+    070911 691  0.0   0.1-    071007 246  0.7+  0.4+
070825 673  0.1-  0.2+    070911 691  0.0   0.2-    071007 246  1.2+  0.0
070825 673  0.1-  0.1+    070912 215  0.3+  0.1-    071007 246  0.8+  0.2-
070825 673  0.1-  0.0     070912 215  0.1+  0.2-    071007 246  1.7+  0.2+
070825 151  0.1+  0.3+    070912 215  0.3+  0.3-    071007 246  1.5+  0.5+
070825 151  0.4-  0.1+    070913 673  0.3+  0.3-    071009 585  0.9-  0.8+
070825 151  0.9-  0.5+    070913 673  0.2+  0.0     071009 585  1.0+  1.2-
070825 J95  0.4+  0.3-    070913 673  0.0   0.0     071009 585  0.7+  0.1-
070825 147  0.0   0.5-    070913 673  0.1-  0.3+    071009 585 (0.2-  3.4-)
070825 147  0.3+  0.9-    070915 691  0.2-  0.2+    071011 691  0.4-  0.7-
070825 204  0.0   0.2+    070915 691  0.4-  0.1+    071011 691  0.3-  0.4-
070825 J95  0.2+  0.1-    070915 691  0.4-  0.1-    071011 691  0.4-  0.1-
070826 247  0.0   0.5-    070915 415  0.5+  0.0     071011 691  0.0   0.2-
070826 J95  0.3+  0.7-    070915 415  0.3+  0.1+    071011 691  0.4-  0.2-
070826 247  0.2+  0.1-    070915 B42  0.2+  0.4+    071011 691  1.7+  0.2+
070826 204  0.2+  0.1+    070915 473 (0.3-  6.6-)   071013 691  0.4-  1.0+
070826 247  0.5+  0.8-    070915 B42  0.2-  0.9+    071013 691  0.2-  0.2-
070826 204  0.1+  0.1+    070915 J47  0.2+  0.1+    071013 691  0.2-  0.2-
070826 H55  0.1+  0.2+    070915 J47  0.1+  0.1+    071013 415  0.0   0.0
070826 H55  0.0   0.3+    070915 J47  0.1+  0.2-    071013 415  0.3+  0.2-
070826 H55  0.0   0.2+    070917 585 (2.5-  0.6+)   071015 703  0.8-  0.2+
070827 D35  0.1-  0.8-    070918 585  1.5-  0.9-    071015 703  1.8-  0.3+
070827 D35  0.0   0.3-    070918 585  0.8-  1.0+    071015 703  0.1-  0.7+
070827 D35  0.0   0.6-    070918 585  0.8-  0.4-    071015 703  0.2+  0.8+
070827 D35  0.0   0.3-    070918 585  0.7-  0.4+    071015 246  0.6+  0.5+
070830 413  0.2-  0.0     070918 130  0.2-  0.1-    071015 246  0.3-  0.6+
070830 413  0.1+  0.2+    070918 130  0.3+  0.4-    071015 246  0.1+  0.4+
070830 413  0.5-  0.0     070919 704  0.4+  0.6+    071015 246  0.3-  0.5-
070831 213  0.1-  0.2+    070919 691  0.0   0.0     071015 246  0.2-  0.4-

Brian G. Marsden             (C) Copyright 2007 MPC           M.P.E.C. 2007-U58

Read MPEC 2007-U57 Read MPEC 2007-U59


Our Web policy. Index to the CBAT/MPC/ICQ pages.


Valid HTML 4.01!